Date String (YYYY-MM-DD hh:mm:ss) UTC,Instrument flags,absolute air pressure of the measurement (hPa),sample flow rate (lpm),inlet stack bypass flow (lpm),air temperature of the measurement (°C),ambient temperature measured by the external sensor (°C),aerosol sample conditioner tube jacket temperature (°C),OPC LED temperature (°C),internal box temperature (°C),relative humidity of the measurement (%),span deviation,mass concentration of particles derived from Lorenz-Mie calculation of OPC scattering (μg/m³),mass concentration of particles derived from Lorenz-Mie calculation of OPC scattering (μg/m³),mass concentration of particles derived from Lorenz-Mie calculation of OPC scattering (μg/m³)
DateTimeUTC,F1_M11,P_M11,Q1_M11,Q2_M11,T1_M11,T2_M11,T3_M11,T4_M11,T5_M11,U1_M11,ZSPAN_M11,X0_M11,X2_M11,X1_M11
2024-04-20 23:00:00,SystemResetWarning,0836.1,5.00,000.00,019.8,019.2,000.0,028.4,021.7,022.2,0000.0,0007.24,0005.33,0005.11
2024-04-20 23:01:00,SystemResetWarning,0836.1,5.00,000.00,019.8,019.2,000.0,028.4,021.6,022.2,0000.0,0007.27,0005.33,0005.10
2024-04-20 23:02:00,SystemResetWarning,0836.1,5.00,000.00,019.8,019.2,000.0,028.4,021.6,022.1,0000.0,0007.18,0005.33,0005.10
2024-04-20 23:03:00,SystemResetWarning,0836.1,5.00,000.00,019.8,019.2,000.0,028.4,021.6,022.1,0000.0,0007.13,0005.33,0005.10
2024-04-20 23:04:00,SystemResetWarning,0836.1,5.00,000.00,019.8,019.2,000.0,028.4,021.7,022.1,0000.0,0006.97,0005.30,0005.09
2024-04-20 23:05:00,SystemResetWarning,0836.1,5.00,000.00,019.8,019.2,000.0,028.4,021.7,022.0,0000.0,0007.01,0005.30,0005.08
2024-04-20 23:06:00,SystemResetWarning,0836.0,5.01,000.00,019.8,019.2,000.0,028.4,021.6,022.0,0000.0,0006.94,0005.29,0005.08
2024-04-20 23:07:00,SystemResetWarning,0836.1,4.99,000.00,019.8,019.2,000.0,028.4,021.6,022.0,0000.0,0006.78,0005.24,0005.05
2024-04-20 23:08:00,SystemResetWarning,0836.1,5.00,000.00,019.8,019.2,000.0,028.4,021.6,022.0,0000.0,0006.70,0005.21,0005.03
2024-04-20 23:09:00,SystemResetWarning,0836.2,5.00,000.00,019.8,019.2,000.0,028.4,021.6,022.1,0000.0,0006.62,0005.18,0005.01
2024-04-20 23:10:00,SystemResetWarning,0836.2,5.00,000.00,019.8,019.2,000.0,028.4,021.6,022.0,0000.0,0006.62,0005.16,0004.99
2024-04-20 23:11:00,SystemResetWarning,0836.2,5.00,000.00,019.8,019.2,000.0,028.4,021.6,022.0,0000.0,0006.64,0005.14,0004.97
2024-04-20 23:12:00,SystemResetWarning,0836.2,5.00,000.00,019.8,019.2,000.0,028.4,021.6,022.2,0000.0,0006.57,0005.11,0004.95
2024-04-20 23:13:00,SystemResetWarning,0836.2,5.00,000.00,019.8,019.2,000.0,028.4,021.6,022.1,0000.0,0006.45,0005.08,0004.93
2024-04-20 23:14:00,SystemResetWarning,0836.2,5.00,000.00,019.8,019.2,000.0,028.4,021.6,022.0,0000.0,0006.30,0005.03,0004.90
2024-04-20 23:15:00,SystemResetWarning,0836.1,4.99,000.00,019.8,019.2,000.0,028.4,021.6,022.0,0000.0,0006.24,0005.01,0004.88
2024-04-20 23:16:00,SystemResetWarning,0836.1,5.00,000.00,019.8,019.2,000.0,028.4,021.6,022.0,0000.0,0006.16,0004.99,0004.88
2024-04-20 23:17:00,SystemResetWarning,0836.2,5.00,000.00,019.8,019.2,000.0,028.4,021.6,022.0,0000.0,0006.50,0005.00,0004.86
2024-04-20 23:18:00,SystemResetWarning,0836.2,5.00,000.00,019.8,019.1,000.0,028.4,021.6,022.0,0000.0,0006.70,0005.01,0004.87
2024-04-20 23:19:00,SystemResetWarning,0836.2,5.00,000.00,019.8,019.2,000.0,028.4,021.6,022.1,0000.0,0007.09,0004.98,0004.86
2024-04-20 23:20:00,SystemResetWarning,0836.2,5.01,000.00,019.8,019.1,000.0,028.4,021.6,022.0,0000.0,0007.45,0005.01,0004.87
2024-04-20 23:21:00,SystemResetWarning,0836.2,4.99,000.00,019.8,019.2,000.0,028.4,021.6,022.1,0000.0,0007.44,0005.01,0004.87
2024-04-20 23:22:00,SystemResetWarning,0836.2,5.00,000.00,019.8,019.2,000.0,028.4,021.6,022.1,0000.0,0007.43,0005.02,0004.88
2024-04-20 23:23:00,SystemResetWarning,0836.1,5.00,000.00,019.8,019.2,000.0,028.4,021.6,022.1,0000.0,0007.41,0005.02,0004.88
2024-04-20 23:24:00,SystemResetWarning,0836.2,5.00,000.00,019.8,019.2,000.0,028.4,021.6,022.1,0000.0,0007.41,0005.02,0004.89
2024-04-20 23:25:00,SystemResetWarning,0836.2,5.01,000.00,019.8,019.2,000.0,028.4,021.6,022.1,0000.0,0007.43,0005.04,0004.90
2024-04-20 23:26:00,SystemResetWarning,0836.3,5.01,000.00,019.8,019.2,000.0,028.4,021.6,022.0,0000.0,0007.46,0005.06,0004.91
2024-04-20 23:27:00,SystemResetWarning,0836.3,5.01,000.00,019.8,019.2,000.0,028.3,021.6,022.1,0000.0,0007.47,0005.06,0004.91
2024-04-20 23:28:00,SystemResetWarning,0836.2,4.99,000.00,019.8,019.2,000.0,028.4,021.6,022.0,0000.0,0007.47,0005.07,0004.93
2024-04-20 23:29:00,SystemResetWarning,0836.2,5.00,000.00,019.8,019.2,000.0,028.3,021.6,022.0,0000.0,0007.19,0005.06,0004.94
2024-04-20 23:30:00,SystemResetWarning,0836.2,5.00,000.00,019.8,019.2,000.0,028.3,021.6,022.0,0000.0,0007.22,0005.08,0004.94
2024-04-20 23:31:00,SystemResetWarning,0836.2,5.00,000.00,019.8,019.2,000.0,028.3,021.6,022.0,0000.0,0007.59,0005.10,0004.96
2024-04-20 23:32:00,SystemResetWarning,0836.3,4.99,000.00,019.8,019.2,000.0,028.3,021.6,022.0,0000.0,0007.47,0005.09,0004.97
2024-04-20 23:33:00,SystemResetWarning,0836.2,5.00,000.00,019.8,019.2,000.0,028.3,021.6,022.0,0000.0,0007.46,0005.10,0004.98
2024-04-20 23:34:00,SystemResetWarning,0836.2,5.01,000.00,019.8,019.2,000.0,028.3,021.6,022.0,0000.0,0007.47,0005.13,0005.00
2024-04-20 23:35:00,SystemResetWarning,0836.2,5.01,000.00,019.8,019.2,000.0,028.3,021.6,022.0,0000.0,0007.53,0005.16,0005.03
2024-04-20 23:36:00,SystemResetWarning,0836.2,5.00,000.00,019.8,019.2,000.0,028.3,021.6,022.1,0000.0,0007.53,0005.17,0005.03
2024-04-20 23:37:00,SystemResetWarning,0836.3,4.99,000.00,019.8,019.2,000.0,028.3,021.6,022.0,0000.0,0007.56,0005.19,0005.04
2024-04-20 23:38:00,SystemResetWarning,0836.2,4.99,000.00,019.8,019.2,000.0,028.3,021.6,022.0,0000.0,0007.58,0005.21,0005.07
2024-04-20 23:39:00,SystemResetWarning,0836.3,4.99,000.00,019.8,019.2,000.0,028.3,021.6,022.0,0000.0,0007.61,0005.24,0005.08
2024-04-20 23:40:00,SystemResetWarning,0836.3,5.00,000.00,019.8,019.2,000.0,028.3,021.6,022.0,0000.0,0007.62,0005.26,0005.09
2024-04-20 23:41:00,SystemResetWarning,0836.3,5.02,000.00,019.8,019.2,000.0,028.3,021.6,022.0,0000.0,0007.58,0005.25,0005.11
2024-04-20 23:42:00,SystemResetWarning,0836.4,5.00,000.00,019.8,019.2,000.0,028.3,021.6,022.1,0000.0,0006.63,0005.27,0005.11
2024-04-20 23:43:00,SystemResetWarning,0836.4,4.99,000.00,019.8,019.2,000.0,028.3,021.6,022.1,0000.0,0006.89,0005.27,0005.12
2024-04-20 23:44:00,SystemResetWarning,0836.4,4.99,000.00,019.8,019.2,000.0,028.3,021.6,022.2,0000.0,0007.81,0005.29,0005.14
2024-04-20 23:45:00,SystemResetWarning,0836.3,5.00,000.00,019.8,019.2,000.0,028.3,021.6,022.1,0000.0,0007.83,0005.31,0005.15
2024-04-20 23:46:00,SystemResetWarning,0836.3,5.01,000.00,019.8,019.2,000.0,028.3,021.6,022.0,0000.0,0007.84,0005.32,0005.17
2024-04-20 23:47:00,SystemResetWarning,0836.2,5.00,000.00,019.8,019.2,000.0,028.3,021.6,022.0,0000.0,0007.88,0005.34,0005.18
2024-04-20 23:48:00,SystemResetWarning,0836.2,5.00,000.00,019.8,019.2,000.0,028.3,021.6,022.0,0000.0,0007.86,0005.34,0005.19
2024-04-20 23:49:00,SystemResetWarning,0836.3,5.00,000.00,019.8,019.2,000.0,028.3,021.6,022.1,0000.0,0007.88,0005.35,0005.19
2024-04-20 23:50:00,SystemResetWarning,0836.2,5.00,000.00,019.8,019.2,000.0,028.3,021.6,022.0,0000.0,0007.87,0005.34,0005.19
2024-04-20 23:51:00,SystemResetWarning,0836.3,5.00,000.00,019.8,019.2,000.0,028.3,021.6,022.0,0000.0,0007.87,0005.34,0005.19
2024-04-20 23:52:00,SystemResetWarning,0836.3,5.00,000.00,019.8,019.2,000.0,028.3,021.6,021.9,0000.0,0007.89,0005.36,0005.21
2024-04-20 23:53:00,SystemResetWarning,0836.3,5.00,000.00,019.8,019.2,000.0,028.3,021.6,021.9,0000.0,0007.89,0005.37,0005.21
2024-04-20 23:54:00,SystemResetWarning,0836.3,5.00,000.00,019.8,019.2,000.0,028.3,021.6,021.9,0000.0,0007.70,0005.38,0005.22
2024-04-20 23:55:00,SystemResetWarning,0836.4,5.00,000.00,019.8,019.2,000.0,028.3,021.6,021.9,0000.0,0006.77,0005.38,0005.22
2024-04-20 23:56:00,SystemResetWarning,0836.4,5.00,000.00,019.8,019.2,000.0,028.3,021.6,022.0,0000.0,0006.75,0005.36,0005.21
2024-04-20 23:57:00,SystemResetWarning,0836.4,5.00,000.00,019.7,019.2,000.0,028.3,021.6,021.9,0000.2,0006.77,0005.36,0005.21
2024-04-20 23:58:00,SystemResetWarning,0836.3,4.99,000.00,019.8,019.2,000.0,028.3,021.6,022.0,0000.0,0006.78,0005.35,0005.21
2024-04-20 23:59:00,SystemResetWarning,0836.4,5.00,000.00,019.7,019.2,000.0,028.3,021.6,022.0,0000.0,0006.87,0005.37,0005.20
